Location: Dziadowski
(50.3833°N, 20.0333°E)
Time: 14:26:25
(UTC+00:00)

Meteor 1-22 Rocket - Visible Passes

Search period start: 11 April 2026 00:00
Search period end: 21 April 2026 00:00
Orbit: 787 x 938 km, 81.2° (Epoch: 11 April)

Date Brightness Start Highest point End Pass type
(mag) Time Alt. Az. Time Alt. Az. Time Alt. Az.
11 Apr 7.9 02:21:05 10° NE 02:21:31 10° NE 02:21:58 10° NE visible
11 Apr 5.8 19:00:18 10° SW 19:05:34 39° WNW 19:11:05 10° N visible
12 Apr 5.8 18:51:44 10° SW 18:57:03 40° WNW 19:02:36 10° N visible
13 Apr 5.8 18:43:11 10° SW 18:48:31 40° WNW 18:54:06 10° N visible
14 Apr 5.8 18:34:37 10° SW 18:39:59 41° WNW 18:45:36 10° N visible
15 Apr 5.8 18:26:04 10° SW 18:31:28 42° WNW 18:37:06 10° N visible
16 Apr 5.8 18:17:30 10° SW 18:22:56 42° WNW 18:28:36 10° N visible
17 Apr 5.8 18:08:58 10° SW 18:14:25 43° WNW 18:20:07 10° N visible
18 Apr 6.0 03:01:04 10° N 03:06:51 42° ENE 03:12:32 10° SE visible
19 Apr 6.0 02:52:33 10° N 02:58:19 41° ENE 03:04:00 10° SE visible
20 Apr 6.0 02:44:04 10° N 02:49:49 41° ENE 02:55:28 10° SE visible
